Simultaneous Nadir Overpasses (SNOs) Predictions

Prediction of SNOs between METOP-B and NPP Satellite Orbit:

Table of predicted SNOs for the next 14.0 days since TLE Epoch: 11/26/2022
Index Date (METOP-B) Time (METOP-B) Lat,Lon (METOP-B) SZA (METOP-B ) Date (NPP) Time (NPP) Lat,Lon (NPP) SZA (NPP ) Distance(km) Time Diff (sec)
1 11/26/2022 02:32:39 72.74, 133.76 93.62 11/26/2022 02:32:53 72.76, 133.71 93.64 2.89 14
2 11/26/2022 03:23:21 -72.73, -58.92 86.39 11/26/2022 03:23:36 -72.72, -58.89 86.40 1.80 15
3 11/26/2022 04:14:01 72.72, 108.39 93.61 11/26/2022 04:14:22 72.72, 108.42 93.61 1.33 21
4 11/26/2022 05:04:43 -72.72, -84.30 86.39 11/26/2022 05:05:06 -72.73, -84.28 86.38 1.61 23
5 11/26/2022 05:55:23 72.70, 83.01 93.61 11/26/2022 05:55:52 72.73, 83.03 93.63 2.64 29
6 11/26/2022 06:46:04 -72.75,-109.57 86.35 11/26/2022 06:46:36 -72.74,-109.67 86.36 3.50 32
7 11/26/2022 07:36:44 72.74, 57.74 93.65 11/26/2022 07:37:22 72.74, 57.64 93.65 3.12 38
8 11/26/2022 08:27:27 -72.68,-135.05 86.40 11/26/2022 08:28:05 -72.70,-134.96 86.39 3.61 38
9 11/26/2022 09:18:06 72.72, 32.36 93.65 11/26/2022 09:18:51 72.69, 32.36 93.62 2.90 45
10 11/26/2022 10:08:48 -72.71,-160.33 86.36 11/26/2022 10:09:35 -72.70,-160.35 86.37 1.24 47
11 11/26/2022 10:59:28 72.70, 6.98 93.65 11/26/2022 11:00:21 72.70, 6.96 93.64 0.55 53
12 11/26/2022 11:50:10 -72.70, 174.30 86.36 11/26/2022 11:51:05 -72.71, 174.26 86.35 2.23 55
13 11/26/2022 12:40:50 72.68, -18.40 93.64 11/26/2022 12:41:51 72.71, -18.43 93.66 3.15 61
14 11/26/2022 13:31:32 -72.68, 148.92 86.36 11/26/2022 13:32:34 -72.67, 148.97 86.38 2.00 62
15 11/26/2022 14:22:12 72.66, -43.77 93.64 11/26/2022 14:23:20 72.67, -43.71 93.63 2.03 68
16 11/26/2022 15:12:54 -72.66, 123.54 86.37 11/26/2022 15:14:04 -72.68, 123.58 86.36 2.53 70
17 11/26/2022 16:03:36 72.54, -69.36 93.54 11/26/2022 16:04:49 72.62, -69.00 93.60 14.90 73
18 11/26/2022 16:54:19 -72.49, 97.86 86.52 11/26/2022 16:55:31 -72.53, 98.50 86.49 22.21 72
19 11/26/2022 17:45:03 72.27, -95.24 93.29 11/26/2022 17:46:13 72.33, -93.77 93.30 50.00 70
20 11/26/2022 18:35:46 -72.22, 71.98 86.76 11/26/2022 18:36:55 -72.24, 73.72 86.79 59.18 69
21 11/26/2022 19:26:31 71.94,-121.21 92.99 11/26/2022 19:27:37 72.03,-118.57 93.01 91.21 66



Historial Predications of SNOs between METOP-B and NPP
